Вернуться в каталог

SL-12 DEB

LostHEO
NORAD 41702·DEBRIS·🇷🇺 Russia

Запущен Mar 1, 2010 с Baikonur Cosmodrome

Loading…

Ближайшие Пролёты (ближайшие 24 часа)

TLE

УстаревшееSource: Space-Track

Эпоха: Jun 25, 2019, 10:31 UTC

1 41702U 10007U   19176.43850192  .00000516  00000-0  65188-3 0  9991
2 41702  65.4592 338.2312 5152089  27.4035 352.2985  5.17837228 76639

Отслеживайте SL-12 DEB в реальном времени с AllMySat

Download on the App Store